カタログに戻る

STARLINK-35735

運用中通信VLEO
NORAD 66231·PAYLOAD·🇺🇸 United States

打ち上げ Oct 28, 2025 から Vandenberg Space Force Base

Loading…

次のパス (今後24時間)

TLE

最新Source: CelesTrak SupGP

元期: Sep 14, 2026, 21:03 UTC

1 66231C 25244AB  26257.87756944  .00015079  00000+0  44567-3 0  2574
2 66231  53.1585  68.1760 0001235  83.7522  36.0704 15.34371943    14

AllMySatでSTARLINK-35735をリアルタイム追跡

Download on the App Store